ONGLAISAT (62299 NORAD) Tracking and Keplerian Element Data

This shows tracking and keplerian element data for the satellite.

Feedback or suggestion? Click here.




ElementValue
Catalog62299
NameONGLAISAT
Epoch Orbit884
Epoch Day35.14590271
Epoch Year2025
RAAN241.9815
Inclination51.6304
Eccentricity0.0011798
Argument of Perigee209.5549
Mean Anonmoly150.4784
Mean Motion15.72753313
Decay Rate0.00322595
L11 62299U 98067XF 25035.14590271 .00322595 00000+0 22475-2 0 9999
L22 62299 51.6304 241.9815 0011798 209.5549 150.4784 15.72753313 8845



Live tracking and technical data element details for ONGLAISAT (NORAD 62299). ONGLAISAT can be tracked NOW for your location showing map with azimuth and elevation plus other details from your city location.







IsCatalogInMostPopularTable: catalog: 62299, numindb: 10
Update: records affected: 1



GetName: 62299 ONGLAISAT

Hit Count: updated at: Sat, 24 May 2025 16:15:22 GMT